,,Stat5,,Stat1,,Stat2,,Stat3,,Stat4,,Wind1,,Wind1,
time,status,PA1M_AVG,status,PR1M_SUM,status,RH1M_AVG,status,SR1M_AVG,status,TA1M_AVG,status,W1dAve1m,status,W1sAve1m,
2000-11-03, 00:00:00,VALID,918.38,VALID,0,VALID,98.1806,VALID,-0.101885,VALID,20.0362,VALID,284,VALID,0,
2000-11-03, 00:01:00,VALID,918.374,VALID,0,VALID,98.1145,VALID,-0.0679233,VALID,20.0365,VALID,284,VALID,0,
2000-11-03, 00:02:00,VALID,918.37,VALID,0,VALID,97.9581,VALID,-0.0169808,VALID,20.0037,VALID,284,VALID,0,
2000-11-03, 00:03:00,VALID,918.365,VALID,0,VALID,97.7788,VALID,0.0339617,VALID,19.941,VALID,284,VALID,0,
2000-11-03, 00:04:00,VALID,918.366,VALID,0,VALID,97.7126,VALID,0.0679233,VALID,19.8985,VALID,23,VALID,0,
2000-11-03, 00:05:00,VALID,918.358,VALID,0,VALID,97.8716,VALID,0.0849042,VALID,19.9184,VALID,87,VALID,0,
2000-11-03, 00:06:00,VALID,918.365,VALID,0,VALID,97.8907,VALID,0.0169808,VALID,19.9313,VALID,87,VALID,0,
2000-11-03, 00:07:00,VALID,918.364,VALID,0,VALID,97.9288,VALID,0.0169808,VALID,19.9286,VALID,87,VALID,0,
2000-11-03, 00:08:00,VALID,918.372,VALID,0,VALID,97.9225,VALID,0.0509425,VALID,19.9189,VALID,87,VALID,0,
2000-11-03, 00:09:00,VALID,918.387,VALID,0,VALID,97.9174,VALID,0.0679233,VALID,19.9055,VALID,87,VALID,0,
2000-11-03, 00:10:00,VALID,918.395,VALID,0,VALID,97.8868,VALID,0.0169808,VALID,19.9057,VALID,87,VALID,0,
2000-11-03, 00:11:00,VALID,918.405,VALID,0,VALID,97.8983,VALID,0.0509425,VALID,19.9052,VALID,87,VALID,0,
2000-11-03, 00:12:00,VALID,918.387,VALID,0,VALID,97.8296,VALID,0.0339617,VALID,19.9023,VALID,74,VALID,0,
2000-11-03, 00:13:00,VALID,918.387,VALID,0,VALID,97.7762,VALID,0,VALID,19.903,VALID,70,VALID,0,
2000-11-03, 00:14:00,VALID,918.369,VALID,0,VALID,97.5588,VALID,0.0169808,VALID,19.8705,VALID,99,VALID,0,
2000-11-03, 00:15:00,VALID,918.336,VALID,0,VALID,97.3413,VALID,0.0169808,VALID,19.8416,VALID,99,VALID,0,
2000-11-03, 00:16:00,VALID,918.316,VALID,0,VALID,97.3909,VALID,0.0339617,VALID,19.8441,VALID,99,VALID,0,
2000-11-03, 00:17:00,VALID,918.31,VALID,0,VALID,97.3502,VALID,0.0679233,VALID,19.8637,VALID,99,VALID,0,
2000-11-03, 00:18:00,VALID,918.291,VALID,0,VALID,97.0807,VALID,0.0509425,VALID,19.8384,VALID,99,VALID,0,
2000-11-03, 00:19:00,VALID,918.3,VALID,0,VALID,97.0514,VALID,0,VALID,19.822,VALID,99,VALID,0,
2000-11-03, 00:20:00,VALID,918.289,VALID,0,VALID,97.0094,VALID,0.0509425,VALID,19.7986,VALID,99,VALID,0,
2000-11-03, 00:21:00,VALID,918.275,VALID,0,VALID,96.9014,VALID,0.0339617,VALID,19.783,VALID,99,VALID,0,
2000-11-03, 00:22:00,VALID,918.267,VALID,0,VALID,96.6712,VALID,0,VALID,19.7539,VALID,99,VALID,0,
2000-11-03, 00:23:00,VALID,918.253,VALID,0,VALID,96.5695,VALID,0,VALID,19.7121,VALID,99,VALID,0,
2000-11-03, 00:24:00,VALID,918.219,VALID,0,VALID,96.7106,VALID,0.0169808,VALID,19.699,VALID,99,VALID,0,
2000-11-03, 00:25:00,VALID,918.183,VALID,0,VALID,96.97,VALID,0.0339617,VALID,19.7094,VALID,99,VALID,0,
2000-11-03, 00:26:00,VALID,918.165,VALID,0,VALID,97.115,VALID,0.0339617,VALID,19.7186,VALID,100,VALID,0,
2000-11-03, 00:27:00,VALID,918.145,VALID,0,VALID,97.2905,VALID,0.0509425,VALID,19.7315,VALID,112,VALID,0,
2000-11-03, 00:28:00,VALID,918.153,VALID,0,VALID,97.3922,VALID,0,VALID,19.7318,VALID,119,VALID,0,
2000-11-03, 00:29:00,VALID,918.133,VALID,0,VALID,97.5283,VALID,0,VALID,19.7539,VALID,119,VALID,0,
2000-11-03, 00:30:00,VALID,918.118,VALID,0,VALID,97.6389,VALID,0,VALID,19.7872,VALID,119,VALID,0,
2000-11-03, 00:31:00,VALID,918.113,VALID,0,VALID,97.7419,VALID,0.0339617,VALID,19.7865,VALID,119,VALID,0,
2000-11-03, 00:32:00,VALID,918.101,VALID,0,VALID,97.8258,VALID,0.0339617,VALID,19.8098,VALID,119,VALID,0,
2000-11-03, 00:33:00,VALID,918.107,VALID,0,VALID,97.8449,VALID,0.0339617,VALID,19.8163,VALID,119,VALID,0,
2000-11-03, 00:34:00,VALID,918.115,VALID,0,VALID,97.8627,VALID,0.0339617,VALID,19.8053,VALID,119,VALID,0,
2000-11-03, 00:35:00,VALID,918.114,VALID,0,VALID,97.8042,VALID,0,VALID,19.7959,VALID,119,VALID,0,
2000-11-03, 00:36:00,VALID,918.113,VALID,0,VALID,97.719,VALID,0,VALID,19.7671,VALID,120,VALID,0,
2000-11-03, 00:37:00,VALID,918.108,VALID,0,VALID,97.6783,VALID,0,VALID,19.7641,VALID,121,VALID,0,
2000-11-03, 00:38:00,VALID,918.101,VALID,0,VALID,97.6376,VALID,0.0509425,VALID,19.7445,VALID,183,VALID,0,
2000-11-03, 00:39:00,VALID,918.105,VALID,0,VALID,97.6071,VALID,0.0339617,VALID,19.735,VALID,185,VALID,0,
2000-11-03, 00:40:00,VALID,918.095,VALID,0,VALID,97.5155,VALID,0.0849042,VALID,19.7057,VALID,180,VALID,0,
2000-11-03, 00:41:00,VALID,918.084,VALID,0,VALID,97.5715,VALID,0.0339617,VALID,19.7062,VALID,178,VALID,0,
2000-11-03, 00:42:00,VALID,918.074,VALID,0,VALID,97.6109,VALID,0.0509425,VALID,19.6928,VALID,174,VALID,0,
2000-11-03, 00:43:00,VALID,918.062,VALID,0,VALID,97.6262,VALID,0.0339617,VALID,19.6923,VALID,137,VALID,0,
2000-11-03, 00:44:00,VALID,918.06,VALID,0,VALID,97.5804,VALID,0.0169808,VALID,19.6992,VALID,131,VALID,0,
2000-11-03, 00:45:00,VALID,918.039,VALID,0,VALID,97.574,VALID,0.0509425,VALID,19.7022,VALID,130,VALID,0,
2000-11-03, 00:46:00,VALID,918.051,VALID,0,VALID,97.424,VALID,0.0509425,VALID,19.696,VALID,122,VALID,0,
2000-11-03, 00:47:00,VALID,918.047,VALID,0,VALID,97.0272,VALID,0.0169808,VALID,19.6445,VALID,106,VALID,0.0314556,
2000-11-03, 00:48:00,VALID,918.058,VALID,0,VALID,97.2383,VALID,0,VALID,19.6378,VALID,94,VALID,0.904046,
2000-11-03, 00:49:00,VALID,918.066,VALID,0,VALID,97.3223,VALID,0,VALID,19.6376,VALID,80,VALID,0.827714,
2000-11-03, 00:50:00,VALID,918.074,VALID,0,VALID,97.307,VALID,0,VALID,19.651,VALID,66,VALID,0.702925,
2000-11-03, 00:51:00,VALID,918.068,VALID,0,VALID,97.2294,VALID,-0.0339617,VALID,19.6513,VALID,64,VALID,0.800576,
2000-11-03, 00:52:00,VALID,918.076,VALID,0,VALID,97.1569,VALID,0,VALID,19.6706,VALID,42,VALID,0.462139,
2000-11-03, 00:53:00,VALID,918.055,VALID,0,VALID,97.1188,VALID,0,VALID,19.6706,VALID,19,VALID,0.0520148,
2000-11-03, 00:54:00,VALID,918.043,VALID,0,VALID,97.1493,VALID,-0.0169808,VALID,19.7032,VALID,20,VALID,0.083734,
2000-11-03, 00:55:00,VALID,918.03,VALID,0,VALID,97.1582,VALID,0,VALID,19.7159,VALID,21,VALID,0,
2000-11-03, 00:56:00,VALID,918.011,VALID,0,VALID,97.2104,VALID,-0.0169808,VALID,19.7194,VALID,37,VALID,0.214744,
2000-11-03, 00:57:00,VALID,917.995,VALID,0,VALID,97.1455,VALID,0,VALID,19.7186,VALID,47,VALID,0.0154194,
2000-11-03, 00:58:00,VALID,917.984,VALID,0,VALID,97.026,VALID,-0.0169808,VALID,19.7094,VALID,47,VALID,0,
2000-11-03, 00:59:00,VALID,917.975,VALID,0,VALID,96.9484,VALID,-0.0169808,VALID,19.7,VALID,47,VALID,0,
2000-11-03, 01:00:00,VALID,917.976,VALID,0,VALID,97.0603,VALID,0,VALID,19.7094,VALID,47,VALID,0,
2000-11-03, 01:01:00,VALID,917.959,VALID,0,VALID,97.2536,VALID,-0.0169808,VALID,19.7288,VALID,47,VALID,0,
2000-11-03, 01:02:00,VALID,917.951,VALID,0,VALID,97.3782,VALID,0,VALID,19.7452,VALID,45,VALID,0.015024,
2000-11-03, 01:03:00,VALID,917.954,VALID,0,VALID,97.5028,VALID,0,VALID,19.7517,VALID,313,VALID,0.417146,
2000-11-03, 01:04:00,VALID,917.942,VALID,0,VALID,97.6948,VALID,0,VALID,19.7579,VALID,309,VALID,0.327123,
2000-11-03, 01:05:00,VALID,917.933,VALID,0,VALID,97.8296,VALID,0,VALID,19.7745,VALID,309,VALID,0,
2000-11-03, 01:06:00,VALID,917.902,VALID,0,VALID,97.9314,VALID,0,VALID,19.7541,VALID,309,VALID,0,
2000-11-03, 01:07:00,VALID,917.883,VALID,0,VALID,98.0165,VALID,0,VALID,19.7678,VALID,309,VALID,0,
2000-11-03, 01:08:00,VALID,917.88,VALID,0,VALID,98.0255,VALID,-0.0339617,VALID,19.7546,VALID,309,VALID,0,
2000-11-03, 01:09:00,VALID,917.882,VALID,0,VALID,97.9911,VALID,-0.0169808,VALID,19.7228,VALID,309,VALID,0,
2000-11-03, 01:10:00,VALID,917.875,VALID,0,VALID,98.0204,VALID,-0.0169808,VALID,19.7092,VALID,309,VALID,0,
2000-11-03, 01:11:00,VALID,917.872,VALID,0,VALID,98.0394,VALID,-0.0169808,VALID,19.7094,VALID,309,VALID,0,
2000-11-03, 01:12:00,VALID,917.856,VALID,0,VALID,98.0534,VALID,-0.0339617,VALID,19.7034,VALID,309,VALID,0,
2000-11-03, 01:13:00,VALID,917.849,VALID,0,VALID,98.07,VALID,-0.0169808,VALID,19.7064,VALID,309,VALID,0,
2000-11-03, 01:14:00,VALID,917.846,VALID,0,VALID,97.9568,VALID,0,VALID,19.69,VALID,293,VALID,0,
2000-11-03, 01:15:00,VALID,917.853,VALID,0,VALID,97.8792,VALID,-0.0339617,VALID,19.6547,VALID,289,VALID,0,
2000-11-03, 01:16:00,VALID,917.848,VALID,0,VALID,97.8703,VALID,-0.0339617,VALID,19.6388,VALID,289,VALID,0,
2000-11-03, 01:17:00,VALID,917.833,VALID,0,VALID,97.8716,VALID,-0.0169808,VALID,19.6187,VALID,289,VALID,0,
2000-11-03, 01:18:00,VALID,917.82,VALID,0,VALID,97.8919,VALID,0,VALID,19.6319,VALID,289,VALID,0,
2000-11-03, 01:19:00,VALID,917.811,VALID,0,VALID,97.9186,VALID,0,VALID,19.6378,VALID,289,VALID,0,
2000-11-03, 01:20:00,VALID,917.796,VALID,0,VALID,97.8894,VALID,-0.0169808,VALID,19.6418,VALID,289,VALID,0,
2000-11-03, 01:21:00,VALID,917.783,VALID,0,VALID,97.8093,VALID,0,VALID,19.6152,VALID,289,VALID,0,
2000-11-03, 01:22:00,VALID,917.761,VALID,0,VALID,97.8017,VALID,0,VALID,19.6344,VALID,295,VALID,0,
2000-11-03, 01:23:00,VALID,917.758,VALID,0,VALID,97.8563,VALID,-0.0169808,VALID,19.6577,VALID,310,VALID,0,
2000-11-03, 01:24:00,VALID,917.741,VALID,0,VALID,97.8779,VALID,0,VALID,19.6868,VALID,310,VALID,0,
2000-11-03, 01:25:00,VALID,917.72,VALID,0,VALID,97.8856,VALID,0,VALID,19.7156,VALID,310,VALID,0,
2000-11-03, 01:26:00,VALID,917.704,VALID,0,VALID,97.9428,VALID,-0.0169808,VALID,19.7576,VALID,310,VALID,0,
2000-11-03, 01:27:00,VALID,917.686,VALID,0,VALID,97.9492,VALID,0,VALID,19.7872,VALID,310,VALID,0,
2000-11-03, 01:28:00,VALID,917.674,VALID,0,VALID,97.8538,VALID,0,VALID,19.777,VALID,311,VALID,0,
2000-11-03, 01:29:00,VALID,917.666,VALID,0,VALID,97.4011,VALID,0,VALID,19.6992,VALID,311,VALID,0,
2000-11-03, 01:30:00,VALID,917.651,VALID,0,VALID,96.9573,VALID,-0.0169808,VALID,19.6518,VALID,311,VALID,0,
2000-11-03, 01:31:00,VALID,917.651,VALID,0,VALID,96.6979,VALID,0,VALID,19.5804,VALID,311,VALID,0,
2000-11-03, 01:32:00,VALID,917.645,VALID,0,VALID,96.6852,VALID,0,VALID,19.5414,VALID,311,VALID,0,
2000-11-03, 01:33:00,VALID,917.621,VALID,0,VALID,96.8251,VALID,0.0169808,VALID,19.5384,VALID,311,VALID,0,
2000-11-03, 01:34:00,VALID,917.602,VALID,0,VALID,96.9064,VALID,0,VALID,19.5151,VALID,311,VALID,0,
2000-11-03, 01:35:00,VALID,917.575,VALID,0,VALID,96.9726,VALID,0.0169808,VALID,19.5158,VALID,311,VALID,0,
2000-11-03, 01:36:00,VALID,917.575,VALID,0,VALID,96.9586,VALID,0.0169808,VALID,19.4962,VALID,311,VALID,0,
2000-11-03, 01:37:00,VALID,917.547,VALID,0,VALID,96.9662,VALID,0,VALID,19.4892,VALID,311,VALID,0,
2000-11-03, 01:38:00,VALID,917.524,VALID,0,VALID,96.9039,VALID,0,VALID,19.4733,VALID,311,VALID,0,
2000-11-03, 01:39:00,VALID,917.51,VALID,0,VALID,96.778,VALID,0.0169808,VALID,19.4346,VALID,312,VALID,0,
2000-11-03, 01:40:00,VALID,917.474,VALID,0,VALID,96.7818,VALID,0,VALID,19.4052,VALID,336,VALID,0,
2000-11-03, 01:41:00,VALID,917.467,VALID,0,VALID,96.8136,VALID,-0.0169808,VALID,19.396,VALID,350,VALID,0,
2000-11-03, 01:42:00,VALID,917.447,VALID,0,VALID,96.8314,VALID,0.0169808,VALID,19.3695,VALID,13,VALID,0,
2000-11-03, 01:43:00,VALID,917.435,VALID,0,VALID,96.9637,VALID,0,VALID,19.3769,VALID,22,VALID,0,
2000-11-03, 01:44:00,VALID,917.441,VALID,0,VALID,97.1608,VALID,0.0169808,VALID,19.4092,VALID,36,VALID,0,
2000-11-03, 01:45:00,VALID,917.427,VALID,0,VALID,97.1964,VALID,0.0339617,VALID,19.4152,VALID,35,VALID,0,
2000-11-03, 01:46:00,VALID,917.403,VALID,0,VALID,97.3871,VALID,0.0169808,VALID,19.477,VALID,32,VALID,0,
2000-11-03, 01:47:00,VALID,917.394,VALID,0,VALID,97.5537,VALID,0.0339617,VALID,19.5185,VALID,32,VALID,0,
2000-11-03, 01:48:00,VALID,917.382,VALID,0,VALID,97.5702,VALID,0.0849042,VALID,19.5342,VALID,39,VALID,0,
2000-11-03, 01:49:00,VALID,917.365,VALID,0,VALID,97.335,VALID,0.0679233,VALID,19.521,VALID,47,VALID,0,
2000-11-03, 01:50:00,VALID,917.347,VALID,0,VALID,97.2218,VALID,0.0509425,VALID,19.5181,VALID,49,VALID,0,
2000-11-03, 01:51:00,VALID,917.336,VALID,0,VALID,96.661,VALID,0.0339617,VALID,19.4634,VALID,49,VALID,0,
2000-11-03, 01:52:00,VALID,917.315,VALID,0,VALID,96.5135,VALID,0.0339617,VALID,19.4281,VALID,49,VALID,0,
2000-11-03, 01:53:00,VALID,917.308,VALID,0,VALID,96.6598,VALID,0.0169808,VALID,19.3921,VALID,49,VALID,0,
2000-11-03, 01:54:00,VALID,917.293,VALID,0,VALID,96.9726,VALID,0.0339617,VALID,19.4115,VALID,49,VALID,0,
2000-11-03, 01:55:00,VALID,917.285,VALID,0,VALID,96.9331,VALID,0.0169808,VALID,19.3958,VALID,49,VALID,0,
2000-11-03, 01:56:00,VALID,917.263,VALID,0,VALID,97.0247,VALID,0.0509425,VALID,19.3953,VALID,49,VALID,0,
2000-11-03, 01:57:00,VALID,917.261,VALID,0,VALID,97.087,VALID,0.0679233,VALID,19.4022,VALID,49,VALID,0,
2000-11-03, 01:58:00,VALID,917.254,VALID,0,VALID,97.0819,VALID,0.0339617,VALID,19.3963,VALID,49,VALID,0,
2000-11-03, 01:59:00,VALID,917.231,VALID,0,VALID,97.1633,VALID,0.0509425,VALID,19.3829,VALID,49,VALID,0,
2000-11-03, 02:00:00,VALID,917.212,VALID,0,VALID,97.1926,VALID,0.0509425,VALID,19.3764,VALID,49,VALID,0,
2000-11-03, 02:01:00,VALID,917.174,VALID,0,VALID,97.2777,VALID,0.0849042,VALID,19.3665,VALID,49,VALID,0,
2000-11-03, 02:02:00,VALID,917.157,VALID,0,VALID,97.2905,VALID,0.0169808,VALID,19.3451,VALID,65,VALID,0,
2000-11-03, 02:03:00,VALID,917.143,VALID,0,VALID,97.1608,VALID,-0.0169808,VALID,19.3165,VALID,88,VALID,0,
2000-11-03, 02:04:00,VALID,917.136,VALID,0,VALID,97.1035,VALID,-0.0509425,VALID,19.2805,VALID,88,VALID,0,
2000-11-03, 02:05:00,VALID,917.12,VALID,0,VALID,97.1951,VALID,-0.0339617,VALID,19.2909,VALID,88,VALID,0,
2000-11-03, 02:06:00,VALID,917.116,VALID,0,VALID,97.3858,VALID,-0.0509425,VALID,19.3098,VALID,88,VALID,0,
2000-11-03, 02:07:00,VALID,917.11,VALID,0,VALID,97.5003,VALID,-0.0849042,VALID,19.3329,VALID,88,VALID,0,
2000-11-03, 02:08:00,VALID,917.088,VALID,0,VALID,97.4799,VALID,-0.0679233,VALID,19.3361,VALID,88,VALID,0,
2000-11-03, 02:09:00,VALID,917.078,VALID,0,VALID,97.2523,VALID,-0.101885,VALID,19.2971,VALID,88,VALID,0,
2000-11-03, 02:10:00,VALID,917.073,VALID,0,VALID,97.045,VALID,-0.0849042,VALID,19.2685,VALID,88,VALID,0,
2000-11-03, 02:11:00,VALID,917.066,VALID,0,VALID,97.0171,VALID,-0.0849042,VALID,19.2653,VALID,88,VALID,0,
2000-11-03, 02:12:00,VALID,917.066,VALID,0,VALID,97.0603,VALID,-0.0339617,VALID,19.2459,VALID,88,VALID,0,
2000-11-03, 02:13:00,VALID,917.047,VALID,0,VALID,97.0667,VALID,-0.101885,VALID,19.2394,VALID,88,VALID,0,
2000-11-03, 02:14:00,VALID,917.025,VALID,0,VALID,97.1175,VALID,-0.0849042,VALID,19.2427,VALID,88,VALID,0,
2000-11-03, 02:15:00,VALID,917,VALID,0,VALID,97.2638,VALID,-0.0679233,VALID,19.2553,VALID,88,VALID,0,
2000-11-03, 02:16:00,VALID,917.014,VALID,0,VALID,97.4011,VALID,-0.101885,VALID,19.2782,VALID,88,VALID,0,
2000-11-03, 02:17:00,VALID,916.998,VALID,0,VALID,97.4939,VALID,-0.0339617,VALID,19.3008,VALID,88,VALID,0,
2000-11-03, 02:18:00,VALID,916.974,VALID,0,VALID,97.4316,VALID,-0.0849042,VALID,19.3033,VALID,98,VALID,0,
2000-11-03, 02:19:00,VALID,916.968,VALID,0,VALID,97.3273,VALID,-0.0339617,VALID,19.2812,VALID,120,VALID,0,
2000-11-03, 02:20:00,VALID,916.972,VALID,0,VALID,97.5511,VALID,-0.0679233,VALID,19.2969,VALID,120,VALID,0,
2000-11-03, 02:21:00,VALID,916.988,VALID,0,VALID,97.6173,VALID,0.0339617,VALID,19.3247,VALID,120,VALID,0,
2000-11-03, 02:22:00,VALID,917.009,VALID,0,VALID,97.6325,VALID,0.0849042,VALID,19.3439,VALID,120,VALID,0,
2000-11-03, 02:23:00,VALID,917.014,VALID,0,VALID,97.5779,VALID,0.0509425,VALID,19.351,VALID,120,VALID,0,
2000-11-03, 02:24:00,VALID,917.014,VALID,0,VALID,97.4151,VALID,0,VALID,19.3443,VALID,120,VALID,0,
2000-11-03, 02:25:00,VALID,916.995,VALID,0,VALID,97.4316,VALID,0.0339617,VALID,19.3503,VALID,120,VALID,0,
2000-11-03, 02:26:00,VALID,916.978,VALID,0,VALID,97.3604,VALID,0.0679233,VALID,19.3501,VALID,120,VALID,0,
2000-11-03, 02:27:00,VALID,916.957,VALID,0,VALID,97.3642,VALID,0.0339617,VALID,19.3704,VALID,120,VALID,0,
2000-11-03, 02:28:00,VALID,916.956,VALID,0,VALID,97.3248,VALID,0.0509425,VALID,19.3799,VALID,121,VALID,0,
2000-11-03, 02:29:00,VALID,916.965,VALID,0,VALID,97.2383,VALID,0.0849042,VALID,19.3861,VALID,121,VALID,0,
2000-11-03, 02:30:00,VALID,916.979,VALID,0,VALID,97.0438,VALID,0.0169808,VALID,19.4119,VALID,121,VALID,0,
2000-11-03, 02:31:00,VALID,916.975,VALID,0,VALID,96.717,VALID,0.0679233,VALID,19.4082,VALID,121,VALID,0,
2000-11-03, 02:32:00,VALID,916.978,VALID,0,VALID,96.5542,VALID,0,VALID,19.4057,VALID,115,VALID,0,
2000-11-03, 02:33:00,VALID,916.984,VALID,0,VALID,96.4309,VALID,0.0169808,VALID,19.4025,VALID,310,VALID,0,
2000-11-03, 02:34:00,VALID,916.989,VALID,0,VALID,96.3469,VALID,0.0509425,VALID,19.3702,VALID,310,VALID,0,
2000-11-03, 02:35:00,VALID,917.007,VALID,0,VALID,96.366,VALID,0.0169808,VALID,19.3607,VALID,10,VALID,0,
2000-11-03, 02:36:00,VALID,916.993,VALID,0,VALID,95.7633,VALID,0,VALID,19.3831,VALID,81,VALID,0.740986,
2000-11-03, 02:37:00,VALID,917.006,VALID,0,VALID,94.8833,VALID,0,VALID,19.4606,VALID,68,VALID,0.626439,
2000-11-03, 02:38:00,VALID,917.006,VALID,0,VALID,94.5578,VALID,0.0169808,VALID,19.5317,VALID,76,VALID,0.232372,
2000-11-03, 02:39:00,VALID,916.994,VALID,0,VALID,94.484,VALID,0.0169808,VALID,19.5384,VALID,90,VALID,0.444285,
2000-11-03, 02:40:00,VALID,916.982,VALID,0,VALID,94.5489,VALID,0,VALID,19.5188,VALID,102,VALID,0.354367,
2000-11-03, 02:41:00,VALID,916.986,VALID,0,VALID,94.7485,VALID,0.0169808,VALID,19.4867,VALID,110,VALID,0.305921,
2000-11-03, 02:42:00,VALID,916.98,VALID,0,VALID,94.91,VALID,0,VALID,19.4669,VALID,126,VALID,0.472356,
2000-11-03, 02:43:00,VALID,916.982,VALID,0,VALID,94.9215,VALID,0.0339617,VALID,19.4639,VALID,125,VALID,0.200041,
2000-11-03, 02:44:00,VALID,916.966,VALID,0,VALID,94.7981,VALID,0,VALID,19.4701,VALID,124,VALID,0.166867,
2000-11-03, 02:45:00,VALID,916.942,VALID,0,VALID,94.6341,VALID,0.0169808,VALID,19.49,VALID,124,VALID,0.41838,
2000-11-03, 02:46:00,VALID,916.928,VALID,0,VALID,94.5374,VALID,0,VALID,19.5064,VALID,124,VALID,0.571915,
2000-11-03, 02:47:00,VALID,916.915,VALID,0,VALID,94.4459,VALID,0,VALID,19.4994,VALID,124,VALID,0.484786,
2000-11-03, 02:48:00,VALID,916.915,VALID,0,VALID,94.4255,VALID,-0.0169808,VALID,19.4833,VALID,124,VALID,0.0340545,
2000-11-03, 02:49:00,VALID,916.922,VALID,0,VALID,94.5133,VALID,0,VALID,19.4539,VALID,124,VALID,0,
2000-11-03, 02:50:00,VALID,916.914,VALID,0,VALID,94.6722,VALID,0,VALID,19.435,VALID,124,VALID,0.0010016,
2000-11-03, 02:51:00,VALID,916.911,VALID,0,VALID,94.7358,VALID,0,VALID,19.445,VALID,124,VALID,0,
2000-11-03, 02:52:00,VALID,916.889,VALID,0,VALID,94.7854,VALID,0.0169808,VALID,19.4611,VALID,124,VALID,0.0703125,
2000-11-03, 02:53:00,VALID,916.876,VALID,0,VALID,94.7396,VALID,0,VALID,19.4537,VALID,124,VALID,0,
2000-11-03, 02:54:00,VALID,916.886,VALID,0,VALID,94.5934,VALID,0,VALID,19.4539,VALID,124,VALID,0,
2000-11-03, 02:55:00,VALID,916.892,VALID,0,VALID,94.746,VALID,0.0169808,VALID,19.4542,VALID,241,VALID,0.511719,
2000-11-03, 02:56:00,VALID,916.896,VALID,0,VALID,94.9685,VALID,0,VALID,19.4447,VALID,245,VALID,0.469151,
2000-11-03, 02:57:00,VALID,916.899,VALID,0,VALID,95.144,VALID,0.0509425,VALID,19.4055,VALID,241,VALID,0.587788,
2000-11-03, 02:58:00,VALID,916.898,VALID,0,VALID,95.4199,VALID,0,VALID,19.3734,VALID,228,VALID,0.280048,
2000-11-03, 02:59:00,VALID,916.893,VALID,0,VALID,95.6819,VALID,-0.0339617,VALID,19.3543,VALID,172,VALID,0.293174,
2000-11-03, 03:00:00,VALID,916.872,VALID,0,VALID,95.6704,VALID,0.0169808,VALID,19.3284,VALID,105,VALID,0.932292,
2000-11-03, 03:01:00,VALID,916.871,VALID,0,VALID,95.6463,VALID,0,VALID,19.2899,VALID,110,VALID,1.07257,
2000-11-03, 03:02:00,VALID,916.845,VALID,0,VALID,95.6539,VALID,0,VALID,19.2541,VALID,111,VALID,0.927684,
2000-11-03, 03:03:00,VALID,916.838,VALID,0,VALID,95.6285,VALID,0,VALID,19.2574,VALID,110,VALID,0.695107,
2000-11-03, 03:04:00,VALID,916.825,VALID,0,VALID,95.5776,VALID,0,VALID,19.2511,VALID,106,VALID,0.262019,
2000-11-03, 03:05:00,VALID,916.838,VALID,0,VALID,95.5306,VALID,-0.0169808,VALID,19.2444,VALID,105,VALID,0.142475,
2000-11-03, 03:06:00,VALID,916.842,VALID,0,VALID,95.6119,VALID,0.0169808,VALID,19.2315,VALID,96,VALID,0.178486,
2000-11-03, 03:07:00,VALID,916.841,VALID,0,VALID,95.6844,VALID,0.0339617,VALID,19.2373,VALID,86,VALID,0.340255,
2000-11-03, 03:08:00,VALID,916.832,VALID,0,VALID,95.6666,VALID,0,VALID,19.2604,VALID,83,VALID,0.492388,
2000-11-03, 03:09:00,VALID,916.815,VALID,0,VALID,95.5751,VALID,0,VALID,19.2864,VALID,74,VALID,0.41838,
2000-11-03, 03:10:00,VALID,916.804,VALID,0,VALID,95.5191,VALID,0.0169808,VALID,19.2864,VALID,72,VALID,0,
2000-11-03, 03:11:00,VALID,916.781,VALID,0,VALID,95.5725,VALID,0,VALID,19.2991,VALID,75,VALID,0,
2000-11-03, 03:12:00,VALID,916.772,VALID,0,VALID,95.4721,VALID,0,VALID,19.2929,VALID,82,VALID,0,
2000-11-03, 03:13:00,VALID,916.763,VALID,0,VALID,95.411,VALID,0.0339617,VALID,19.2477,VALID,84,VALID,0,
2000-11-03, 03:14:00,VALID,916.767,VALID,0,VALID,95.6094,VALID,0,VALID,19.2218,VALID,84,VALID,0,
2000-11-03, 03:15:00,VALID,916.768,VALID,0,VALID,95.7989,VALID,0,VALID,19.2251,VALID,309,VALID,0,
2000-11-03, 03:16:00,VALID,916.772,VALID,0,VALID,95.8345,VALID,-0.0169808,VALID,19.2509,VALID,295,VALID,0,
2000-11-03, 03:17:00,VALID,916.756,VALID,0,VALID,95.823,VALID,0.0169808,VALID,19.2442,VALID,319,VALID,0,
2000-11-03, 03:18:00,VALID,916.725,VALID,0,VALID,95.7315,VALID,-0.0169808,VALID,19.2576,VALID,22,VALID,0,
2000-11-03, 03:19:00,VALID,916.713,VALID,0,VALID,95.528,VALID,0.0169808,VALID,19.2608,VALID,98,VALID,0,
2000-11-03, 03:20:00,VALID,916.705,VALID,0,VALID,95.4848,VALID,0,VALID,19.235,VALID,91,VALID,0,
2000-11-03, 03:21:00,VALID,916.709,VALID,0,VALID,95.6119,VALID,0,VALID,19.1995,VALID,91,VALID,0,
2000-11-03, 03:22:00,VALID,916.711,VALID,0,VALID,95.8523,VALID,-0.0169808,VALID,19.1868,VALID,42,VALID,0,
2000-11-03, 03:23:00,VALID,916.705,VALID,0,VALID,96.1982,VALID,0,VALID,19.1831,VALID,316,VALID,0,
2000-11-03, 03:24:00,VALID,916.692,VALID,0,VALID,96.5733,VALID,0,VALID,19.1902,VALID,324,VALID,0,
2000-11-03, 03:25:00,VALID,916.677,VALID,0,VALID,96.5974,VALID,0,VALID,19.1831,VALID,74,VALID,0,
2000-11-03, 03:26:00,VALID,916.658,VALID,0,VALID,96.2554,VALID,-0.0339617,VALID,19.2059,VALID,80,VALID,0.601763,
2000-11-03, 03:27:00,VALID,916.641,VALID,0,VALID,95.9464,VALID,0,VALID,19.2733,VALID,348,VALID,0.614309,
2000-11-03, 03:28:00,VALID,916.632,VALID,0,VALID,96.4766,VALID,0,VALID,19.3093,VALID,326,VALID,0.465545,
2000-11-03, 03:29:00,VALID,916.616,VALID,0,VALID,96.7259,VALID,0.0169808,VALID,19.283,VALID,350,VALID,0.42352,
2000-11-03, 03:30:00,VALID,916.608,VALID,0,VALID,96.8836,VALID,0,VALID,19.2539,VALID,326,VALID,0.0819311,
2000-11-03, 03:31:00,VALID,916.594,VALID,0,VALID,97.026,VALID,0,VALID,19.2313,VALID,334,VALID,0,
2000-11-03, 03:32:00,VALID,916.597,VALID,0,VALID,97.2027,VALID,0,VALID,19.2318,VALID,334,VALID,0,
2000-11-03, 03:33:00,VALID,916.574,VALID,0,VALID,97.3184,VALID,0,VALID,19.2156,VALID,334,VALID,0,
2000-11-03, 03:34:00,VALID,916.556,VALID,0,VALID,97.3947,VALID,-0.0169808,VALID,19.2057,VALID,334,VALID,0,
2000-11-03, 03:35:00,VALID,916.543,VALID,0,VALID,97.4863,VALID,0,VALID,19.196,VALID,334,VALID,0,
2000-11-03, 03:36:00,VALID,916.547,VALID,0,VALID,97.5639,VALID,0,VALID,19.1863,VALID,334,VALID,0,
2000-11-03, 03:37:00,VALID,916.528,VALID,0,VALID,97.6173,VALID,0,VALID,19.1803,VALID,334,VALID,0,
2000-11-03, 03:38:00,VALID,916.537,VALID,0,VALID,97.6758,VALID,0,VALID,19.1672,VALID,334,VALID,0,
2000-11-03, 03:39:00,VALID,916.544,VALID,0,VALID,97.7279,VALID,0,VALID,19.1605,VALID,334,VALID,0,
2000-11-03, 03:40:00,VALID,916.54,VALID,0,VALID,97.7826,VALID,-0.0169808,VALID,19.1575,VALID,334,VALID,0,
2000-11-03, 03:41:00,VALID,916.552,VALID,0,VALID,97.808,VALID,0,VALID,19.1475,VALID,334,VALID,0,
2000-11-03, 03:42:00,VALID,916.555,VALID,0,VALID,97.7673,VALID,-0.0169808,VALID,19.1284,VALID,334,VALID,0,
2000-11-03, 03:43:00,VALID,916.544,VALID,0,VALID,97.7559,VALID,-0.0169808,VALID,19.1252,VALID,334,VALID,0,
2000-11-03, 03:44:00,VALID,916.529,VALID,0,VALID,97.7877,VALID,0,VALID,19.1187,VALID,292,VALID,0,
2000-11-03, 03:45:00,VALID,916.511,VALID,0,VALID,97.85,VALID,0,VALID,19.1316,VALID,289,VALID,0,
2000-11-03, 03:46:00,VALID,916.49,VALID,0,VALID,97.8703,VALID,0,VALID,19.1122,VALID,289,VALID,0,